Starlink 11427

operational
NORAD ID: 62063 Int'l Des: 2024-217 Owner: SPXS Country: US Constellation: starlink
LEOCIRCULAR

About Starlink 11427

Description loading...

Live Position

Loading 3D Globe...

Upcoming Passes

Altitude History

Altitude vs Time

uPlot chart will show altitude changes over time

Two-Line Element Set

1 62063U 24217G 25258.29778028 .00446868 00000-0 34751-2 0 9996
2 62063 53.1568 216.0665 0001004 296.3942 63.6973 15.69870346 47625
Epoch: Sep 15, 2025 • Age: 16 hours

Current Status

Altitude 362.7 km
Velocity 7.70 km/s
Sub-Earth Point 44.67°N, 75.07°W
Launch Date Nov 24, 2024
Age 0.8 years
Type internet

Technical Details

Classification Payload
Mass 960.00 kg
Dry Mass 910.00 kg
Total Mass 960.00 kg
Length 0.30 m
Diameter 4.10 m
Span 29.00 m
Shape Box + pan
Manufacturer SPXS
Bus Type Starlink V2MD
Phase Status In Orbit
Owner/State SPXS/US

Large Constellations

Loading constellations...